Terminal Aerodrome Forecast
Issued by NWS

Home | Current Version | Previous Version | Graphics & Text | Print | Product List | Glossary On
Versions: 1 2 3 4 5 6 7 8 9 10 11 12 13 14 15 16 17 18 19 20 21 22 23 24 25
000
FTUS42 KMHX 171100
TAFOAJ
TAF
KOAJ 171129Z 1712/1812 04012G20KT P6SM SCT035
     FM172200 05010KT P6SM BKN035
     FM180900 02007KT P6SM SCT010
      AMD LTD TO CLD VIS AND WIND=

USA.gov is the U.S. government's official web portal to all federal, state and local government web resources and services.